Location: Waco, TX
(31.5480°N, 97.1670°W)
Time: 14:50:07
(UTC-05:00)

ISS - Pass Details

Date: 16 August 2019
Orbit: 410 x 421 km, 51.6° (Epoch: 22 August)

Event Time Altitude Azimuth Distance (km) Brightness Sun altitude
Rises 17:44:11 0° 315° (NW) 2,368 0.6 30.1°
Reaches altitude 10° 17:46:17 10° 316° (NW) 1,501 -0.3 29.6°
Maximum altitude 17:49:40 84° 45° (NE) 425 -3.3 28.9°
Drops below altitude 10° 17:53:01 10° 134° (SE) 1,490 -1.3 28.2°
Sets 17:55:06 0° 135° (SE) 2,349 -0.3 27.8°
